Regional Weather Roundup
Issued by NWS

Home | Current Version | Previous Version | Graphics & Text | Print | Product List | Glossary On
Versions: 1 2 3 4 5 6 7 8 9 10 11 12 13 14 15 16 17 18 19 20 21 22 23 24 25 26 27 28 29 30 31 32 33 34 35 36 37 38 39 40 41 42 43 44 45 46 47 48 49
000
ASUS45 KCYS 181110
RWRWY

WYOMING REGIONAL WEATHER ROUNDUP
NATIONAL WEATHER SERVICE CHEYENNE WY
500 AM MDT SAT APR 18 2015

NOTE:  "FAIR" INDICATES FEW OR NO CLOUDS BELOW 12,000 FEET
WITH NO SIGNIFICANT WEATHER AND/OR OBSTRUCTIONS TO VISIBILITY.

WYZ001-181200-
YELLOWSTONE NATIONAL PARK

CITY           SKY/WX    TMP DP  RH WIND       PRES   REMARKS
LK YELLOWSTONE   N/A     22  19  89 CALM      30.14R
W YELLOWSTONE  NOT AVBL

$$
WYZ002>013-054>058-071-098>099-181200-
NORTHERN WYOMING

CITY           SKY/WX    TMP DP  RH WIND       PRES   REMARKS
JACKSON        FAIR      27  25  93 N8        30.08F WCI  18
CODY           FAIR      37  30  75 CALM      30.01S
GREYBULL       FAIR      36  25  64 NW3       30.00S
WORLAND        FAIR      37  33  85 SE9       30.00S WCI  30
SHERIDAN       FAIR      35  30  82 CALM      29.99S
BUFFALO        FAIR      43  29  57 SW5       30.00F
GILLETTE       FAIR      40  37  89 S3        30.01S
HULETT         PTSUNNY   39  36  87 CALM      30.03S
NEWCASTLE      PTSUNNY   43  43 100 N3        30.01F

$$
WYZ014>020-022>026-101>103-181200-
CENTRAL WYOMING

CITY           SKY/WX    TMP DP  RH WIND       PRES   REMARKS
BIG PINEY      FAIR      24  20  84 CALM      30.06F
PINEDALE       FAIR      23  21  93 NW3       30.07S
DUBOIS         FAIR      28  23  80 W14       30.05F WCI  17
LANDER         FAIR      33  31  92 SE3       30.03S
RIVERTON       FAIR      37  32  82 S3        30.04S
CASPER         CLOUDY    37  36  96 W6        30.00F FOG     WCI  32
DOUGLAS        CLOUDY    37  37 100 NW8       30.00F WCI  31

$$
WYZ021-027>030-104>119-181200-
SOUTHERN WYOMING

CITY           SKY/WX    TMP DP  RH WIND       PRES   REMARKS
EVANSTON       FAIR      32  29  88 CALM      30.08F
FORT BRIDGER   SUNNY     34  32  93 SW8       30.09F WCI  27
ROCK SPRINGS   CLOUDY    35  33  92 NW7       30.06R WCI  29
DIXON          FAIR      28  26  94 CALM      30.03S
RAWLINS        CLOUDY    33  31  92 N10       30.00F WCI  25
SARATOGA       LGT SNOW  32  32 100 MISG      30.01F
LARAMIE        LGT SNOW  28  27  96 NW10      29.97F FOG     WCI  19
CHEYENNE       CLOUDY    35  32  88 N12       29.93F WCI  27
TORRINGTON     LGT RAIN  42  41  96 NW5       29.94F
PINE BLUFFS    PTSUNNY   36  36 100 W3        29.95R

$$


USA.gov is the U.S. government's official web portal to all federal, state and local government web resources and services.